GW3446 Weather Reports


Display with metric or nautical units.
time (UTC)temp
F
wind
direction
speed
MPH
gust
MPH
rain 1hr
in
rain 24hr
in
rain mn
in
humidity
%
barometer
mb
20260505024530 69 63 4.0 13.0 0.00 0.00 0.00 42 1002.3
20260505023006 68 94 4.0 8.0 0.00 0.00 0.00 41 1002.1
20260505020025 71 82 3.0 10.0 0.00 0.00 0.00 36 1002.0
20260505013004 73 71 2.0 6.0 0.00 0.00 0.00 29 1001.6
20260505003004 80 67 5.0 16.0 0.00 0.00 0.00 22 1000.9
20260505000024 80 76 6.0 11.0 0.00 0.00 0.00 22 1001.6
20260504234519 80 50 8.0 13.0 0.00 0.00 0.00 22 1001.6
20260504233004 81 67 6.0 13.0 0.00 0.00 0.00 21 1001.7
20260504231510 82 67 6.0 12.0 0.00 0.00 0.00 20 1001.6
20260504230016 82 360 4.0 13.0 0.00 0.00 0.00 19 1001.6
20260504224521 82 50 6.0 11.0 0.00 0.00 0.00 22 1001.6
20260504223007 82 92 3.0 13.0 0.00 0.00 0.00 22 1001.9
20260504221514 82 63 4.0 9.0 0.00 0.00 0.00 22 1001.8
20260504220020 83 92 4.0 9.0 0.00 0.00 0.00 22 1001.9
20260504214521 84 197 2.0 8.0 0.00 0.00 0.00 20 1002.2
20260504213009 84 128 0.0 8.0 0.00 0.00 0.00 17 1002.4
20260504211514 85 213 3.0 6.0 0.00 0.00 0.00 17 1002.4
20260504204525 85 81 2.0 11.0 0.00 0.00 0.00 19 1002.8
20260504203011 85 101 1.0 14.0 0.00 0.00 0.00 15 1002.9
20260504201518 84 48 2.0 8.0 0.00 0.00 0.00 15 1003.2
20260504191518 86 309 3.0 9.0 0.00 0.00 0.00 14 1004.1
20260504190024 85 261 3.0 7.0 0.00 0.00 0.00 15 1004.4
20260504184528 85 281 1.0 7.0 0.00 0.00 0.00 16 1004.7
20260504183017 84 348 1.0 6.0 0.00 0.00 0.00 16 1004.8
20260504181504 83 17 2.0 8.0 0.00 0.00 0.00 18 1005.0
20260504180009 82 289 2.0 8.0 0.00 0.00 0.00 18 1005.3
20260504174509 82 325 4.0 9.0 0.00 0.00 0.00 19 1005.4
20260504173020 83 279 3.0 7.0 0.00 0.00 0.00 20 1005.5
20260504171504 83 340 3.0 11.0 0.00 0.00 0.00 20 1005.7
20260504081507 55 214 3.0 7.0 0.00 0.00 0.00 42 1007.0
20260504050015 59 224 1.0 3.0 0.00 0.00 0.00 33 1007.9
20260504044514 60 204 0.0 2.0 0.00 0.00 0.00 31 1008.0
20260504043021 61 204 0.0 2.0 0.00 0.00 0.00 32 1008.0
20260504041510 62 298 0.0 3.0 0.00 0.00 0.00 30 1008.2
20260504040018 63 298 1.0 4.0 0.00 0.00 0.00 28 1008.3
20260504034502 64 315 0.0 5.0 0.00 0.00 0.00 27 1008.2
20260504033008 65 197 4.0 7.0 0.00 0.00 0.00 25 1007.9
20260504031511 67 205 4.0 8.0 0.00 0.00 0.00 25 1007.9
20260504030021 65 200 3.0 8.0 0.00 0.00 0.00 26 1007.9